Victor Araujo

Scout - Sampaio Correa
4 Apr 2027
Sonntag
Verarbeitung

Persönlichkeit

Anpassungsfähigkeit (6) Ehrgeiz (8) Kontroverse (7) Loyalität (14) Druck (6) Professionalität (18) Fairness (4) Temperament (10)

Profil

Trainerstil Demokratisch
Lizenz Kontinentale C
Entschlossenheit 6
Menschenführung 11
Motivation 10
Disziplin 6
Arbeitszufriedenheit
92%
Ermüdung
0%
Rolle Scout
Gehalt 11.2K p/W
Vertrag 14.03.2030

Leistung

Verhalten Gut
Trainingseffektivität
27%
Spielerentwicklung
45%
Verletzungsprävention
55%
Taktische Umsetzung
15%

Letzte Ereignisse

Nahm an einer Scouting-Besprechung teil 7T her
Nahm an einer Scouting-Besprechung teil 14T her
Nahm an einer Scouting-Besprechung teil 14T her
Nahm an einer Scouting-Besprechung teil 21T her
Nahm an einer Scouting-Besprechung teil 21T her
Nahm an einer Scouting-Besprechung teil 28T her
Nahm an einer Scouting-Besprechung teil 28T her
Nahm an einer Scouting-Besprechung teil 35T her

Aktuell beobachtet

81
Spieler Verein Status Fähigkeit Vertrauen Beobachtet Zuletzt beobachtet Letzte Stimme
Riquelme Grêmio Aktiv 82 / 100 44% 1 21.12.2026 -
Franco Cristaldo Talleres Aktiv 127 / 114 40% 1 30.11.2026 Mehr Infos nötig
Charlie Webster Burton Albion Aktiv 110 / 109 40% 1 30.11.2026 -
Luccas Paraízo Leixões Aktiv 93 / 113 40% 3 28.11.2026 -
Rafael Barbosa Chaves Aktiv 125 / 99 40% 1 28.11.2026 -
Mika Lusitânia Lourosa Aktiv 96 / 89 40% 2 24.11.2026 -
Daniel Rivas AVS Aktiv 96 / 102 40% 2 23.11.2026 -
Dinis Pinto Moreirense Aktiv 124 / 135 40% 1 23.11.2026 -
Gabi Pereira Chaves Aktiv 90 / 88 40% 1 22.11.2026 -
Pedro Pelágio Chaves Aktiv 114 / 102 40% 1 19.11.2026 -
Gastón Novero Notts County Aktiv 90 / 94 40% 1 19.11.2026 -
Paulité Lusitânia Lourosa Aktiv 107 / 96 40% 2 15.11.2026 -
Dinis Rodrigues Porto Aktiv 108 / 116 40% 1 15.11.2026 -
Juan Muñoz Leiria Aktiv 126 / 111 40% 1 13.11.2026 -
Artem Slesar Zorya Aktiv 93 / 101 40% 1 12.11.2026 -
Tiago Ribeiro Oliveirense Aktiv 86 / 125 40% 1 12.11.2026 -
Enrique Peña Zauner Maritimo Aktiv 121 / 102 40% 1 11.11.2026 -
Robinho Estrela da Amadora Aktiv 130 / 106 40% 1 11.11.2026 -
Igor Milioransa Académico de Viseu Aktiv 99 / 85 40% 1 08.11.2026 -
Vitinho Giresunspor Aktiv 119 / 115 40% 1 08.11.2026 -
Dominik Steczyk Académico de Viseu Aktiv 87 / 84 40% 1 06.11.2026 -
Cristian Montero Veracruz Aktiv 112 / 147 40% 1 01.11.2026 -
Alejandro Organista Puebla Aktiv 106 / 104 40% 1 01.11.2026 -
Bright Godwin Vizela Aktiv 117 / 109 40% 2 31.10.2026 -
Benjamin Kanurić Admira Wacker Aktiv 90 / 122 40% 1 31.10.2026 -
Davo Penafiel Aktiv 121 / 127 40% 1 29.10.2026 -
Nicolás Benedetti Deportivo Cali Aktiv 114 / 112 40% 1 29.10.2026 -
Matías Fernández Independiente Rivadavia Aktiv 134 / 124 40% 1 28.10.2026 -
Iano Simão Penafiel Aktiv 123 / 104 40% 1 26.10.2026 -
Joseph Nduquidi Farense Aktiv 109 / 104 40% 1 26.10.2026 -
João Teixeira Porto Aktiv 105 / 103 40% 2 24.10.2026 -
Yann Kitala Vizela Aktiv 118 / 93 40% 1 24.10.2026 -
Lucas Rodríguez Morelia Aktiv 112 / 121 40% 1 23.10.2026 -
Miguel Falé Pacos de Ferreira Aktiv 111 / 100 40% 1 23.10.2026 Mehr Infos nötig
Rayan Lucas Alverca Aktiv 115 / 133 40% 1 22.10.2026 -
Rodin Quiñónes Dinamo Batumi Aktiv 108 / 110 40% 1 22.10.2026 -
Camilo Perez Cortulua Aktiv 123 / 112 40% 3 20.10.2026 -
Facundo Waller Huracán Aktiv 108 / 128 40% 1 20.10.2026 -
Neto Moura Mirassol Aktiv 131 / 124 40% 1 19.10.2026 -
Martín Campos Ferro Carril Oeste Aktiv 129 / 120 40% 1 19.10.2026 -
Federico Martínez Liverpool Montevideo Aktiv 103 / 108 40% 1 16.10.2026 -
Yeferson Rodallega Envigado Aktiv 119 / 119 40% 1 11.10.2026 -
Razvan Puscas Astra Aktiv 115 / 117 40% 1 07.10.2026 -
Bayron Duarte Queretaro Aktiv 101 / 113 40% 1 05.10.2026 -
Miguel Menino Farense Aktiv 117 / 95 40% 1 05.10.2026 -
Welinton Torrão Santa Clara Aktiv 108 / 96 40% 1 03.10.2026 -
Facundo Pons San Martín Aktiv 122 / 123 40% 1 03.10.2026 -
Thiago Calone All Boys Aktiv 102 / 104 40% 1 01.10.2026 -
João Graça Rio Ave Aktiv 88 / 90 40% 1 26.09.2026 -
Juan Ignacio Méndez Instituto Aktiv 123 / 106 40% 1 26.09.2026 -
Leandro Dias Pacos de Ferreira Aktiv 107 / 90 40% 1 25.09.2026 -
Rui Pedro Chaves Aktiv 96 / 94 40% 1 25.09.2026 -
Tiago Esgaio Arouca Aktiv 134 / 114 40% 1 19.09.2026 -
Lucas Angelini Temperley Aktiv 116 / 108 40% 1 16.09.2026 -
Pedro Ferreira Leiria Aktiv 133 / 122 40% 1 13.09.2026 -
Raphael Guzzo Maritimo Aktiv 97 / 122 40% 1 13.09.2026 -
Walmer Pacheco Deportivo Pereira Aktiv 117 / 124 40% 1 09.09.2026 -
Maga Leiria Aktiv 88 / 99 40% 1 09.09.2026 -
Jarleysom Portimonense Aktiv 120 / 119 40% 1 06.09.2026 -
Rafa Soares Estrela da Amadora Aktiv 136 / 138 40% 1 06.09.2026 -
Gustavo Torres Atletico Nacional Aktiv 116 / 112 40% 1 24.08.2026 -
Nahuel Furtado Wanderers Aktiv 116 / 129 40% 1 24.08.2026 -
João Costa Porto Aktiv 133 / 105 40% 1 18.08.2026 -
Mateus Pasinato Alianza Lima Aktiv 114 / 105 40% 1 16.08.2026 -
Oleksandr Svatok Austin FC Aktiv 137 / 137 40% 1 13.08.2026 -
José Luis Caicedo Barranquilla Aktiv 139 / 117 40% 1 13.08.2026 -
Ronaldo Pájaro Deportivo Cali Aktiv 106 / 107 40% 1 12.08.2026 -
Brian Farioli Estudiantes Aktiv 125 / 117 40% 1 12.08.2026 -
Thauan Lara Portimonense Aktiv 90 / 107 40% 1 12.08.2026 -
Rúben Pereira Académico de Viseu Aktiv 108 / 113 40% 1 12.08.2026 -
Eboué Kouassi Leiria Aktiv 106 / 114 40% 1 10.08.2026 -
Julián Palacios Envigado Aktiv 114 / 110 40% 1 10.08.2026 -
Tomás O'Connor Gimnasia y Esgrima Aktiv 126 / 136 40% 1 09.08.2026 -
David Fernández O'Higgins Aktiv 94 / 125 40% 1 07.08.2026 -
Bryan Róchez Leiria Aktiv 121 / 99 40% 1 04.08.2026 -
Jeriel De Santis Caracas Aktiv 101 / 111 40% 1 04.08.2026 -
Cihan Kahraman Académico de Viseu Aktiv 93 / 84 40% 1 03.08.2026 -
Jonás Acevedo Instituto Aktiv 124 / 121 40% 1 02.08.2026 -
Teo Rodríguez Pagano San Lorenzo Aktiv 105 / 118 40% 1 02.08.2026 -
Matías Fernández Colo-Colo Aktiv 125 / 126 40% 1 01.08.2026 -
Diego Gonçalves Criciuma Aktiv 122 / 110 40% 1 01.08.2026 -